Wind_Speed
18 19 20 20 20 20 20 20 20 20 19 19 18 18 19 21 20 22 26 21 17 11 9 11 11 9 8 12 17 10 2 5 2 9 10 21 13 15 12 29 12 11 23 38 35
18 17 19 21 21 21 21 21 21 21 20 19 19 18 19 21 24 26 18 16 18 16 12 11 13 11 8 11 7 8 4 7 5 16 14 27 32 23 12 17 16 23 38 34 35
20 21 20 20 20 21 21 22 22 22 21 20 19 18 18 19 22 8 7 3 14 19 16 11 13 16 11 14 10 8 9 12 9 21 26 25 26 19 27 10 34 39 45 37 34
20 21 21 22 22 22 22 22 22 22 22 21 20 17 17 14 6 3 2 6 2 11 15 13 11 4 3 2 8 5 17 19 21 25 19 16 27 18 18 15 31 49 49 40 34
21 21 21 22 23 23 24 23 23 22 22 21 20 17 15 12 30 15 15 10 6 7 12 14 14 7 5 5 8 3 5 23 30 26 21 22 25 18 17 33 36 42 40 37 34
23 22 22 23 23 24 25 24 22 21 21 21 19 18 15 12 20 10 16 16 11 12 14 15 7 11 11 6 2 9 7 26 28 20 22 19 22 15 25 37 37 37 36 37 40
25 24 24 24 25 25 25 24 23 21 20 19 18 18 21 37 11 3 7 13 12 9 17 15 18 15 7 9 6 10 5 5 14 17 9 31 6 15 37 38 39 37 38 40 40
26 26 26 26 25 26 26 24 22 20 18 17 16 18 20 27 22 25 27 20 18 16 11 6 14 17 13 14 8 4 2 3 4 12 15 10 5 19 38 37 34 36 36 36 42
29 28 28 27 26 26 26 22 21 17 14 12 12 11 18 14 19 21 25 25 20 20 11 7 10 10 6 2 5 5 1 5 4 6 8 5 7 23 37 34 31 31 34 36 37
31 30 30 28 25 27 22 20 9 4 4 6 9 4 21 14 10 11 26 24 21 20 17 16 9 2 3 4 5 1 1 6 10 9 10 8 6 21 37 35 32 32 32 34 36
32 31 31 29 25 23 17 14 11 2 12 17 10 15 19 2 14 15 26 23 21 17 8 9 4 7 12 10 6 2 6 7 6 8 5 12 10 22 28 27 28 30 31 39 38
33 33 31 29 24 15 10 11 17 20 18 20 29 37 40 31 12 10 21 19 12 8 6 2 10 12 6 3 4 6 7 11 5 7 5 7 12 20 24 29 34 33 33 32 42
32 33 33 29 21 8 10 11 15 20 6 16 31 30 36 27 19 24 12 28 5 8 9 12 6 8 7 6 5 7 9 9 7 2 4 5 3 8 16 23 29 32 40 37 35
31 31 31 32 13 12 7 9 11 12 4 8 8 14 19 21 10 37 26 27 6 12 6 7 13 12 16 11 8 8 11 11 11 5 7 9 5 9 12 18 18 29 33 39 42
32 31 28 23 31 21 17 11 9 3 4 4 6 4 19 29 6 22 26 31 15 7 8 9 14 14 11 21 11 13 8 9 11 13 6 5 2 7 9 12 17 29 34 40 47
34 31 30 26 27 14 10 7 5 4 7 6 10 7 9 9 6 16 23 32 27 10 4 12 12 12 17 9 15 18 3 1 4 2 6 11 12 16 11 26 21 27 36 41 46
37 33 26 29 26 19 12 7 4 4 7 7 4 5 8 8 17 6 16 17 10 11 12 2 17 8 7 10 11 8 6 3 2 1 7 16 6 13 18 24 26 27 41 44 47
34 34 29 25 21 11 3 3 4 6 9 7 9 8 7 7 14 7 7 16 7 8 5 7 8 11 7 13 10 8 10 6 6 4 6 5 7 12 14 27 42 46 46 45 44
36 31 27 22 13 10 5 3 8 6 7 14 15 4 3 5 4 12 8 7 15 10 11 8 8 5 11 7 13 8 4 9 6 3 2 5 8 9 8 13 25 36 35 40 43
39 32 15 23 21 9 2 5 6 2 12 8 3 8 7 12 9 13 10 12 11 19 7 6 3 9 12 6 7 12 7 2 3 7 5 5 4 6 5 9 23 23 36 41 44
28 19 8 30 8 13 4 6 5 25 15 8 10 8 7 8 5 6 9 11 21 15 19 11 4 7 3 7 11 0 3 3 5 6 6 3 7 8 12 9 19 22 42 42 43
18 4 19 29 8 2 4 6 8 23 22 9 6 11 12 10 8 7 4 3 10 23 20 12 7 10 11 9 4 8 11 8 7 6 2 6 12 6 1 3 18 29 37 42 50
24 11 19 18 4 5 10 7 9 15 14 6 8 9 13 12 5 4 4 9 20 6 16 15 6 3 5 5 1 6 7 7 5 5 8 5 11 3 6 3 7 26 32 37 45
9 4 9 9 10 5 7 6 11 22 15 13 13 19 17 13 10 7 6 3 15 10 18 9 8 19 14 7 5 5 8 7 8 5 5 7 6 4 9 10 10 18 22 39 47
3 3 8 4 9 11 13 6 12 11 11 15 6 10 9 6 4 4 5 7 6 15 9 3 17 15 20 11 8 5 9 12 8 9 10 10 11 7 10 10 8 22 23 31 40
5 4 8 14 12 8 7 3 12 14 10 11 10 8 12 5 2 4 6 3 3 9 8 8 3 8 19 19 11 11 8 11 16 10 5 9 10 9 14 16 4 7 28 30 33
7 9 5 8 5 4 4 8 15 19 11 18 17 5 8 11 14 15 16 14 10 2 5 6 4 2 15 7 8 7 11 10 8 7 12 7 11 6 6 6 5 3 15 20 38
Wind_Direction
325 319 315 311 309 308 308 307 307 306 307 307 307 308 307 303 298 289 275 273 277 239 244 250 266 270 233 243 237 224 299 301 25 118 135 140 128 148 132 138 151 168 164 155 153
338 331 321 314 308 306 304 302 302 300 300 301 302 304 306 306 305 291 295 263 244 242 232 240 264 286 251 243 250 165 170 237 216 136 134 151 139 133 134 145 121 119 145 146 153
337 334 330 324 316 310 304 299 293 294 295 296 297 300 302 308 313 294 34 295 228 217 230 238 270 284 278 272 248 239 229 224 176 143 143 144 139 138 126 146 150 146 154 156 162
337 332 329 326 322 317 311 305 296 291 291 291 292 295 296 297 278 193 221 52 195 207 218 243 265 254 260 274 255 252 278 133 145 148 143 148 138 150 152 164 156 153 158 160 168
338 333 329 324 320 317 312 307 303 296 289 287 287 288 290 267 254 260 256 303 292 243 234 228 246 242 249 265 325 245 165 140 149 151 152 153 158 155 130 149 154 151 160 168 173
341 335 331 326 321 316 311 307 302 297 289 283 280 280 275 249 288 275 241 244 247 256 256 229 230 235 272 296 66 341 249 148 154 157 131 118 127 113 149 149 152 158 165 172 178
341 337 333 330 324 318 311 305 302 294 286 279 273 272 260 250 259 202 259 216 233 271 260 258 228 244 327 331 58 339 274 124 153 139 122 115 100 145 157 157 160 169 173 179 182
340 337 333 330 327 321 313 308 303 289 282 272 266 265 259 272 269 254 243 233 228 242 278 273 212 248 260 276 319 152 215 142 219 136 166 106 183 159 162 165 171 174 179 183 191
339 336 333 331 331 324 315 317 303 287 275 260 259 251 273 261 247 240 218 222 223 227 240 249 217 237 271 347 3 11 160 189 98 202 137 100 131 168 170 172 176 183 185 190 197
337 335 332 331 334 327 322 331 341 305 260 248 217 282 250 242 264 248 199 204 219 211 219 213 213 206 38 96 222 50 145 169 151 165 163 155 172 167 176 175 182 191 192 197 199
336 334 331 329 335 330 332 15 6 2 316 267 250 228 263 156 290 240 192 197 217 209 173 208 156 205 215 204 106 344 320 152 221 179 127 170 161 173 180 181 184 188 192 205 203
334 333 331 327 333 321 338 15 2 323 292 272 257 252 254 257 305 224 196 198 200 194 166 90 214 224 234 195 160 217 242 271 327 175 118 170 181 175 182 190 191 192 202 199 203
333 331 331 327 330 295 331 355 353 344 279 280 247 242 237 239 227 241 216 199 153 176 189 199 231 199 209 244 208 225 208 236 231 215 98 88 42 192 208 196 198 202 199 207 199
331 329 330 330 323 321 326 312 337 345 322 270 215 248 208 188 237 233 219 199 204 194 198 210 238 202 217 230 191 237 216 221 234 183 195 157 238 214 205 204 204 207 201 203 207
330 325 326 332 308 313 316 309 322 5 319 200 189 208 179 170 184 209 215 195 186 189 157 219 194 211 211 221 198 238 221 206 233 211 157 196 109 253 164 218 205 210 207 203 209
329 324 322 315 300 323 312 337 342 51 250 294 153 154 133 193 214 182 188 193 195 203 222 215 234 200 217 224 215 241 291 40 320 152 193 207 194 238 182 214 207 208 209 207 210
327 325 316 300 291 305 307 321 70 190 312 315 339 355 171 175 204 176 173 190 169 177 218 223 233 229 160 206 244 218 86 297 329 73 216 219 176 229 209 211 199 203 207 207 209
326 322 310 291 299 277 269 64 201 226 270 7 352 305 210 127 217 196 155 188 205 142 173 172 241 210 195 201 202 202 167 163 182 197 242 129 216 244 210 211 202 205 205 205 204
336 327 315 355 343 206 183 149 206 222 22 353 332 324 287 204 169 197 210 209 203 172 173 161 239 252 208 199 176 227 141 194 164 185 34 263 297 310 163 201 195 201 202 204 204
340 326 344 3 334 188 133 231 245 37 357 347 314 5 346 345 342 193 193 213 206 195 146 215 214 245 261 190 221 195 180 176 357 206 229 274 276 239 302 177 187 191 198 202 204
346 323 357 348 341 177 188 223 305 290 339 346 319 303 328 293 304 317 226 221 192 195 189 189 113 278 150 204 213 42 201 93 127 144 173 240 271 216 261 204 172 190 195 199 202
347 321 338 356 9 357 233 205 258 283 294 281 274 276 262 268 291 299 273 222 295 184 195 195 174 231 231 249 211 190 196 167 200 255 224 175 256 262 164 160 187 190 197 200 203
331 290 346 354 46 343 329 316 312 301 294 274 256 276 283 295 289 270 319 5 9 34 196 188 194 192 299 307 292 190 218 150 129 112 199 155 251 244 207 32 193 190 204 201 205
330 324 348 13 17 12 340 307 332 321 299 284 263 269 262 268 248 269 342 333 329 23 338 208 184 208 221 210 171 212 194 176 148 149 183 210 250 270 299 288 272 255 194 208 205
291 294 6 331 336 340 320 273 330 340 336 325 352 7 252 219 322 34 353 323 331 2 352 131 206 192 217 200 172 218 223 199 175 194 188 224 244 192 227 237 238 260 203 190 199
281 338 339 301 302 327 315 305 333 330 334 328 355 330 40 91 65 310 354 10 300 333 351 342 294 175 210 216 192 225 215 236 216 196 193 187 243 155 232 268 298 167 181 177 174
260 293 330 278 301 340 316 330 331 330 317 327 336 344 20 340 306 285 272 254 249 279 315 5 28 72 212 198 178 230 212 204 214 212 197 175 223 185 180 170 189 138 208 203 183
Height
1536 1534 1532 1530 1528 1525 1524 1522 1520 1518 1516 1515 1514 1512 1510 1507 1505 1503 1498 1498 1499 1502 1502 1503 1504 1507 1510 1510 1510 1512 1519 1518 1505 1504 1510 1510 1512 1522 1519 1519 1526 1529 1530 1537 1543
1535 1533 1530 1527 1525 1523 1521 1519 1517 1515 1513 1512 1511 1509 1507 1504 1500 1495 1494 1492 1494 1496 1499 1499 1501 1504 1507 1506 1507 1505 1516 1507 1496 1499 1503 1506 1505 1513 1520 1525 1529 1530 1537 1541 1545
1533 1530 1527 1525 1522 1520 1517 1515 1513 1512 1510 1509 1508 1507 1504 1502 1498 1489 1489 1488 1489 1492 1497 1498 1500 1502 1502 1501 1499 1499 1502 1488 1492 1496 1498 1504 1507 1511 1516 1527 1520 1524 1533 1540 1545
1532 1528 1525 1521 1518 1516 1513 1511 1509 1507 1506 1505 1504 1503 1502 1502 1503 1487 1487 1487 1488 1491 1494 1496 1497 1499 1497 1498 1492 1496 1482 1482 1491 1493 1495 1501 1507 1513 1509 1517 1520 1521 1529 1537 1543
1529 1526 1523 1519 1516 1512 1509 1507 1505 1503 1501 1500 1499 1499 1499 1497 1484 1487 1486 1486 1488 1489 1490 1494 1494 1496 1494 1489 1490 1484 1484 1484 1487 1490 1493 1499 1505 1509 1515 1519 1525 1528 1533 1536 1541
1527 1524 1520 1517 1513 1509 1505 1502 1500 1498 1496 1495 1495 1494 1495 1492 1481 1480 1481 1483 1485 1486 1487 1491 1491 1492 1491 1491 1494 1487 1484 1483 1486 1489 1494 1498 1507 1507 1522 1520 1525 1528 1532 1536 1540
1525 1521 1517 1513 1509 1505 1501 1497 1495 1493 1491 1490 1490 1489 1486 1472 1479 1478 1479 1481 1482 1484 1484 1487 1489 1491 1491 1488 1491 1490 1489 1486 1486 1490 1497 1500 1515 1512 1516 1521 1523 1528 1531 1534 1537
1522 1518 1514 1510 1505 1501 1496 1492 1489 1486 1485 1485 1485 1484 1471 1468 1473 1472 1476 1478 1479 1481 1483 1484 1487 1490 1491 1488 1489 1496 1491 1504 1487 1488 1496 1494 1522 1514 1516 1520 1523 1525 1529 1532 1535
1519 1515 1510 1506 1502 1496 1491 1487 1483 1480 1480 1480 1482 1481 1468 1463 1461 1463 1469 1473 1476 1479 1482 1483 1487 1487 1488 1491 1501 1500 1509 1499 1495 1487 1491 1496 1517 1514 1516 1519 1521 1525 1527 1529 1531
1517 1512 1507 1502 1498 1493 1487 1484 1479 1477 1477 1478 1479 1483 1463 1457 1458 1459 1463 1470 1473 1475 1481 1482 1484 1485 1490 1499 1521 1505 1498 1494 1496 1490 1488 1497 1505 1507 1511 1514 1516 1520 1525 1527 1528
1514 1509 1504 1499 1495 1490 1486 1482 1484 1481 1478 1475 1469 1460 1452 1455 1457 1456 1460 1465 1469 1473 1479 1477 1487 1494 1486 1483 1489 1489 1497 1493 1486 1480 1490 1497 1502 1502 1507 1510 1511 1513 1519 1521 1523
1512 1506 1502 1496 1493 1489 1488 1486 1489 1492 1469 1461 1457 1454 1450 1457 1460 1453 1458 1462 1464 1473 1472 1480 1487 1474 1474 1481 1487 1493 1500 1498 1484 1479 1488 1498 1499 1496 1500 1499 1503 1504 1509 1513 1517
1510 1504 1499 1494 1490 1487 1487 1486 1485 1480 1473 1447 1441 1439 1440 1450 1453 1448 1452 1454 1458 1468 1469 1476 1472 1472 1475 1480 1489 1492 1500 1495 1494 1484 1488 1500 1509 1505 1500 1501 1503 1503 1502 1508 1510
1508 1503 1498 1491 1490 1486 1485 1484 1483 1479 1482 1447 1432 1422 1430 1439 1441 1439 1445 1451 1455 1463 1466 1471 1465 1470 1474 1479 1483 1500 1477 1481 1487 1497 1510 1491 1535 1508 1499 1497 1499 1500 1500 1502 1506
1506 1501 1497 1496 1487 1485 1485 1482 1481 1480 1494 1421 1420 1417 1417 1424 1425 1428 1437 1445 1449 1455 1461 1466 1463 1468 1475 1469 1474 1479 1469 1479 1480 1490 1493 1498 1516 1498 1494 1498 1494 1491 1493 1494 1497
1503 1499 1494 1491 1485 1484 1481 1480 1480 1490 1486 1423 1411 1416 1421 1422 1422 1424 1431 1440 1442 1452 1451 1456 1451 1457 1459 1460 1463 1458 1470 1477 1476 1489 1514 1490 1499 1483 1492 1478 1478 1482 1485 1487 1490
1497 1493 1491 1484 1480 1483 1481 1480 1492 1493 1437 1425 1421 1418 1415 1419 1422 1421 1427 1436 1445 1463 1464 1456 1453 1449 1451 1465 1459 1464 1488 1519 1520 1525 1525 1480 1505 1476 1459 1451 1461 1466 1470 1475 1481
1493 1487 1481 1479 1478 1479 1479 1482 1491 1456 1442 1427 1430 1418 1421 1414 1421 1420 1426 1435 1434 1441 1461 1473 1476 1447 1442 1450 1463 1468 1481 1515 1528 1531 1510 1483 1501 1468 1443 1442 1448 1454 1458 1466 1474
1491 1480 1474 1474 1473 1473 1478 1488 1472 1455 1448 1445 1432 1424 1421 1412 1418 1422 1427 1429 1426 1429 1453 1469 1465 1435 1434 1440 1447 1459 1479 1467 1492 1495 1510 1491 1465 1442 1435 1440 1443 1451 1460 1463 1467
1490 1479 1473 1471 1473 1473 1479 1475 1463 1449 1452 1450 1455 1441 1447 1437 1434 1422 1425 1413 1420 1420 1426 1441 1464 1438 1433 1436 1437 1444 1450 1481 1496 1512 1516 1497 1479 1475 1445 1437 1438 1446 1452 1455 1458
1493 1481 1474 1471 1465 1469 1477 1472 1459 1446 1459 1458 1455 1457 1450 1450 1434 1430 1416 1408 1407 1416 1420 1432 1448 1445 1432 1440 1445 1453 1459 1463 1473 1490 1510 1514 1490 1445 1434 1431 1431 1438 1440 1447 1451
1495 1490 1476 1470 1470 1469 1470 1462 1458 1449 1456 1457 1450 1449 1451 1445 1439 1431 1416 1408 1401 1400 1419 1420 1442 1453 1445 1426 1425 1432 1445 1454 1475 1490 1486 1489 1467 1429 1424 1426 1426 1427 1437 1439 1442
1495 1486 1478 1473 1484 1482 1471 1462 1456 1453 1453 1449 1445 1440 1438 1443 1446 1422 1411 1406 1404 1402 1407 1410 1439 1461 1449 1435 1425 1434 1435 1441 1456 1468 1480 1492 1462 1426 1425 1422 1426 1426 1431 1435 1439
1499 1494 1482 1481 1487 1486 1483 1471 1464 1455 1448 1442 1437 1434 1433 1435 1432 1425 1420 1408 1408 1408 1403 1406 1418 1423 1437 1436 1429 1433 1429 1431 1443 1474 1472 1471 1450 1438 1431 1427 1422 1421 1427 1430 1433
1501 1496 1494 1491 1485 1486 1486 1476 1469 1461 1448 1440 1434 1433 1427 1433 1431 1430 1426 1419 1409 1410 1404 1403 1411 1411 1410 1415 1420 1421 1421 1424 1439 1441 1454 1448 1446 1438 1429 1425 1417 1416 1419 1422 1425
1501 1498 1496 1493 1487 1486 1483 1476 1471 1461 1462 1448 1447 1438 1432 1438 1438 1439 1434 1429 1426 1415 1414 1409 1409 1405 1411 1406 1415 1421 1417 1418 1418 1425 1433 1431 1434 1420 1419 1419 1414 1414 1416 1419 1420
1500 1498 1497 1493 1487 1488 1484 1479 1472 1465 1455 1452 1446 1439 1435 1436 1431 1428 1427 1425 1426 1428 1424 1421 1422 1421 1415 1407 1416 1432 1415 1415 1414 1414 1418 1439 1423 1410 1418 1416 1415 1415 1420 1418 1419